Location: Calais Saint-Pierre
(50.9509°N, 1.8522°E)
Time: 08:33:30
(UTC+00:00)

Daily predictions for brighter satellites

Satellite Brightness Start Highest point End
(mag) Time Altitude Azimuth Time Altitude Azimuth Time Altitude Azimuth
CZ-4B R/B 3.4 20:08:08 10° SSE 20:13:48 85° WSW 20:19:26 10° NNW
Cosmos 2233 Rocket 4.0 20:09:19 10° S 20:15:26 65° E 20:21:31 10° NNE
Cosmos 1302 Rocket 4.0 20:12:47 10° SSW 20:17:58 88° ESE 20:23:12 10° NNE
Okean-O 2.8 20:15:53 10° SSE 20:20:11 61° ENE 20:24:31 10° N
Cosmos 2219 Rocket 3.5 20:15:30 10° NNW 20:20:26 29° NE 20:25:21 10° ESE
Cosmos 1758 Rocket 3.9 20:16:38 10° N 20:20:56 50° ENE 20:25:15 10° SSE
Cosmos 909 Rocket 4.1 20:14:57 10° SSW 20:21:09 62° ESE 20:27:33 10° NE
CZ-2C R/B 4.4 20:22:15 10° E 20:23:20 12° ENE 20:24:24 10° NE
DNEPR-1 R/B 4.5 20:23:02 10° NW 20:28:20 68° NE 20:34:50 10° SE
ADEOS 4.0 20:27:18 10° S 20:32:28 66° WSW 20:37:40 10° NNW
Cosmos 1805 4.2 20:31:24 10° NNE 20:34:06 24° ENE 20:36:34 11° SE
Cosmos 1725 Rocket 4.4 20:29:15 10° SSW 20:35:29 68° WNW 20:41:43 10° N
NOSS 3-3 (C) 3.7 20:31:07 10° SSW 20:36:20 71° SE 20:42:39 10° NE
Cosmos 2322 Rocket 2.6 20:35:00 10° NNW 20:40:35 55° NE 20:45:49 12° SE
USA 306 2.8 20:41:48 10° W 20:44:47 41° NNW 20:46:48 10° ENE
Cosmos 1602 Rocket 3.9 20:40:41 10° N 20:44:54 50° ENE 20:48:44 12° SSE
Tsikada Rocket 4.3 20:39:09 10° NNW 20:45:16 68° W 20:51:21 10° S
Cosmos 2082 Rocket 2.7 20:40:29 10° SW 20:46:11 68° WNW 20:51:54 10° NNE
NOSS 3-4 (A) 3.9 20:41:19 10° NW 20:47:53 80° NE 20:55:06 12° SE
NOSS 3-4 (C) 3.9 20:41:56 10° NW 20:48:31 80° NE 20:55:45 12° SE
YAOGAN 11 4.1 20:47:37 10° NNE 20:52:05 74° ESE 20:56:32 10° S
CZ-4B R/B 2.7 20:49:58 14° SSE 20:52:44 55° ENE 20:56:11 10° N
Cosmos 2151 2.8 20:51:04 10° N 20:55:13 88° E 20:59:05 11° S
Cosmos 2098 Rocket 3.7 20:53:24 12° SSE 20:57:24 38° E 21:01:12 10° NNE
CZ-4C R/B 3.8 20:55:04 10° W 20:59:24 36° NNW 21:04:57 10° NE
Cosmos 1626 Rocket 4.0 20:56:41 10° NNW 21:01:00 62° W 21:05:20 10° S
Ariane Rocket 3.1 20:59:02 14° SSE 21:03:22 65° ENE 21:08:24 10° N
Cosmos 2278 3.8 21:02:06 10° NNW 21:07:49 77° WSW 21:12:37 15° SSE
Spot 2 Rocket 4.3 21:03:58 10° S 21:08:48 48° W 21:13:42 10° NNW
SL-16 R/B 2.6 21:06:14 10° NW 21:11:48 58° WSW 21:16:43 13° S
COSMOS 2428 4.3 21:07:27 10° NNW 21:12:15 27° NE 21:17:02 10° E
Meteor 1-5 Rocket 4.4 21:07:06 10° N 21:12:51 71° ENE 21:17:38 16° SSE
SPOT 3 Rocket 3.6 21:09:24 13° SSE 21:14:00 84° WSW 21:19:10 10° NNW
Cosmos 1763 Rocket 4.3 21:10:53 15° SSE 21:14:35 34° ESE 21:19:17 10° NE
USA 186 3.2 21:13:05 10° SSW 21:15:30 27° W 21:17:56 10° NW
USA 290 2.8 21:18:07 23° SSE 21:19:31 36° ESE 21:22:26 10° NE
Cosmos 1606 Rocket 3.8 21:17:14 17° SSE 21:20:16 48° E 21:24:26 10° NNE
Cosmos 1513 Rocket 4.5 21:16:01 10° S 21:22:15 86° E 21:28:24 10° N
Cosmos 990 Rocket 4.3 21:17:20 10° NNW 21:22:27 57° ENE 21:26:04 19° SE
Cosmos 1933 3.5 21:20:19 10° SSW 21:24:05 68° WNW 21:27:54 10° N
Cosmos 1464 Rocket 4.0 21:18:40 12° S 21:24:16 64° E 21:30:24 10° NNE
ISS -3.7 21:21:59 10° W 21:25:20 80° N 21:28:15 13° E
Cosmos 1461 3.0 21:22:18 10° SW 21:25:59 65° NW 21:29:39 10° NE
Helios 1B rocket 4.2 21:24:22 12° E 21:26:12 16° ENE 21:28:25 10° NNE
CZ-4B R/B 3.4 21:23:15 16° S 21:27:01 78° WSW 21:31:55 10° NNW
BREEZE-M DEB (TANK) 1.0 21:24:52 10° WSW 21:27:35 60° S 21:28:12 36° ESE
Okean 1 3.5 21:25:54 24° SSE 21:27:41 43° E 21:31:07 10° NNE
Cosmos 1726 Rocket 3.9 21:25:49 22° SSE 21:27:58 40° E 21:31:48 10° NNE
COSMOS 2406 3.7 21:24:36 10° SW 21:30:18 65° WNW 21:36:03 10° NNE
Terra 4.3 21:28:24 10° SW 21:31:27 17° W 21:34:30 10° NW
Okean O Rocket 3.3 21:30:44 10° SSW 21:34:23 27° W 21:38:03 10° NW
Cosmos 1536 4.0 21:32:16 10° NNE 21:35:25 26° ENE 21:36:59 20° ESE
Cosmos 1428 Rocket 4.5 21:31:13 10° N 21:37:29 81° E 21:42:00 19° SSE
Cosmos-2242 3.9 21:37:47 23° SE 21:39:22 31° E 21:43:01 10° NNE
Cosmos 1777 Rocket 4.3 21:34:36 10° NNW 21:39:46 63° WSW 21:43:21 20° S
Cosmos 1092 Rocket 4.4 21:35:20 10° N 21:41:21 51° ENE 21:45:21 21° SE
Cosmos 1437 Rocket 3.9 21:38:17 10° SW 21:41:38 37° WNW 21:45:01 10° N
Cosmos 2333 Rocket 3.2 21:36:52 10° NW 21:42:09 40° WSW 21:46:30 15° S
Okean 1-7 Rocket 3.9 21:42:52 10° NNW 21:47:19 65° W 21:50:19 20° S
Cosmos 1833 4.2 21:44:13 13° S 21:49:09 59° ESE 21:54:41 10° NE
Cosmos 1503 Rocket 4.1 21:44:42 10° NNW 21:49:52 67° WSW 21:53:04 23° S
Cosmos 2360 Rocket 2.6 21:46:32 10° NW 21:52:04 55° WSW 21:55:44 21° S
CZ-2C R/B 2.8 21:52:44 28° SSW 21:53:44 40° W 21:56:23 10° NNW
Cosmos 1766 3.1 21:52:45 10° N 21:55:54 50° ENE 21:56:45 37° SE
Cosmos 2322 4.3 21:50:56 10° NNW 21:56:30 49° NE 22:00:18 20° ESE
Cosmos 1842 4.5 21:56:49 19° E 21:56:50 19° E 21:59:08 10° NE
Cosmos 1975 4.5 21:55:12 10° NNE 21:57:56 19° ENE 21:59:14 16° E
Cosmos 372 Rocket 4.3 21:57:32 10° NNW 22:02:36 57° ENE 22:05:24 25° SE
Cosmos 2034 Rocket 4.0 21:58:36 19° S 22:03:25 82° E 22:09:47 10° NNE
Cosmos 2221 4.1 22:03:18 18° ESE 22:04:13 19° E 22:07:12 10° NE
Cosmos 2219 Rocket 2.3 21:59:13 10° NNW 22:04:51 68° WSW 22:08:05 26° S
Cosmos 1354 Rocket 4.1 21:59:40 10° NNW 22:04:55 72° WSW 22:07:46 27° S
Cosmos 1271 Rocket 3.9 22:06:21 22° E 22:06:28 22° E 22:09:09 10° NE
Cosmos 1825 Rocket 4.4 22:07:07 10° NNW 22:11:16 44° W 22:13:51 21° SSW
Cosmos 540 Rocket 3.4 22:07:44 18° SSW 22:11:38 83° ESE 22:16:48 10° NNE
USA 306 3.3 22:09:56 10° WNW 22:11:19 23° NW 22:11:19 23° NW
Helios 1A 2.9 22:13:03 10° NNE 22:16:55 57° ESE 22:18:07 39° SSE
Cosmos 1953 Rocket 3.8 22:13:51 10° NNW 22:18:10 63° W 22:20:10 30° SSW
RESURS DK-1 2.7 22:15:14 10° NNW 22:19:09 54° NE 22:20:45 31° ESE
Cosmos 2279 Rocket 4.4 22:16:39 26° SSE 22:19:47 47° E 22:25:44 10° NNE
Aureole 1 Rocket 4.0 22:14:53 10° NNW 22:20:41 83° WSW 22:24:34 27° SSE
Cosmos 1707 1.8 22:23:33 71° SW 22:23:47 82° W 22:26:39 10° N
Cosmos 2322 Rocket 3.5 22:19:27 10° NW 22:24:20 30° WSW 22:27:37 18° SSW
Cosmos 1634 Rocket 4.0 22:22:33 27° S 22:26:04 71° E 22:32:16 10° NNE
Cosmos 1937 Rocket 4.0 22:22:27 10° NNW 22:27:29 51° ENE 22:30:09 26° SE
TSX-5 3.1 22:26:13 10° NW 22:29:21 86° WSW 22:29:55 59° SSE
Cosmos 2058 Rocket 2.9 22:30:59 34° S 22:32:50 88° W 22:37:11 10° N
Geosat 3.9 22:27:56 10° NE 22:32:57 69° ESE 22:35:38 28° SSW
Cosmos 468 Rocket 3.9 22:30:14 28° S 22:33:03 73° ESE 22:38:18 10° NNE
CZ-2C R/B 4.3 22:28:53 10° NNE 22:33:06 39° E 22:34:15 33° SE
BREEZE-M DEB 4.5 22:32:05 10° WSW 22:36:41 52° SSE 22:48:35 10° E
Cosmos 2026 Rocket 4.4 22:31:32 10° NNW 22:37:48 60° W 22:41:40 24° SSW
Meteor 2-9 Rocket 4.3 22:33:29 10° N 22:38:52 65° ENE 22:41:25 32° SSE
Cosmos 44 3.8 22:33:44 10° NW 22:38:59 53° WSW 22:41:01 34° S
Lacrosse 4 Rocket 3.7 22:42:44 11° E 22:42:44 11° E 22:43:10 10° E
CZ-2C R/B 4.2 22:39:09 14° ESE 22:42:34 25° ENE 22:46:43 10° N
Cosmos 2237 Rocket 3.0 22:37:55 10° NNW 22:43:24 45° NE 22:47:09 19° ESE
Cosmos 2266 Rocket 4.4 22:41:29 10° N 22:47:23 51° ENE 22:50:26 27° SE
Cosmos 1980 4.3 22:42:11 10° NNW 22:47:42 51° NE 22:51:12 22° ESE
USA 234 4.0 22:43:02 10° ENE 22:48:35 29° SE 22:49:36 27° SE
Cosmos 1470 2.1 22:45:41 10° N 22:49:00 87° E 22:49:19 71° SSE
ARIANE 5 R/B 2.7 22:52:41 41° SSE 22:54:11 73° ENE 22:58:40 10° N
ALOS 2 2.8 22:54:46 39° SE 22:56:15 64° ENE 23:00:36 10° N
Cosmos 2227 Rocket 4.0 22:55:49 14° ESE 22:56:57 15° E 23:00:00 10° ENE
COSMOS 2428 2.7 22:51:24 10° NNW 22:57:07 78° WSW 22:59:34 35° SSE
Helios 1B rocket 2.4 22:58:18 44° SW 22:58:50 49° W 23:02:15 10° NNW
ISS -2.8 22:58:50 10° W 23:01:10 35° WSW 23:01:10 35° WSW
Cosmos 1898 Rocket 3.5 22:57:28 10° NNW 23:02:38 68° WSW 23:04:34 38° S
Cosmos 2263 Rocket 4.4 23:04:20 10° ESE 23:05:12 10° E 23:06:03 10° E
CZ-2C R/B 4.2 23:02:05 10° NNE 23:07:21 35° E 23:09:26 27° SE
Meteor 1-11 Rocket 3.7 23:02:05 10° N 23:07:46 73° ENE 23:10:10 35° SSE
Cosmos 1536 4.1 23:07:27 10° NNW 23:10:37 27° W 23:11:30 24° WSW
SAR-Lupe-2 3.5 23:10:57 59° ESE 23:11:14 63° ENE 23:14:32 10° N
Meteor 1-10 Rocket 4.4 23:11:29 35° SSE 23:13:58 65° E 23:19:52 10° NNE
Cosmos 1238 Rocket 4.1 23:14:04 27° ESE 23:14:50 29° E 23:18:38 10° NNE
PSLV R/B 3.8 23:12:02 10° NNE 23:16:17 57° E 23:17:16 45° SSE
NOSS 8 (H) 4.1 23:16:54 10° NW 23:19:32 73° NW 23:19:32 73° NW
Alouette 2 Rocket 4.4 23:22:56 10° N 23:26:34 43° ENE 23:28:18 29° ESE
Meteor 1-27 Rocket 4.0 23:25:49 35° SSE 23:28:04 56° E 23:33:40 10° NNE
NOSS 0 Rocket 4.0 23:22:15 10° NW 23:28:20 62° WSW 23:30:48 36° S
Cosmos 841 Rocket 3.5 23:27:23 33° SSW 23:29:47 79° WNW 23:35:04 10° NNE
Cosmos 2297 Rocket 2.4 23:27:59 38° SSE 23:29:52 56° ESE 23:35:24 10° NE
Cosmos 1842 4.3 23:29:26 25° W 23:29:59 27° WNW 23:32:46 10° NNW
Cosmos 1975 3.4 23:29:36 10° NNW 23:33:03 38° W 23:33:29 36° WSW
Spot 4 4.3 23:36:12 36° SW 23:37:36 48° W 23:42:15 10° NNW
Cosmos 1271 Rocket 4.0 23:39:41 24° W 23:40:33 27° WNW 23:43:31 10° N
Cosmos 2221 3.1 23:39:35 35° SW 23:40:53 48° WNW 23:44:59 10° N
Cosmos 1812 Rocket 3.7 23:39:58 42° SW 23:41:17 65° WNW 23:45:42 10° N
ACS3 Solar Sail 3.1 23:38:21 10° NNE 23:43:22 27° E 23:46:10 19° SE
MetOp-A 3.7 23:42:38 43° SSE 23:44:13 88° WSW 23:48:53 10° NNW
Cosmos 2219 Rocket 4.4 23:45:35 10° WNW 23:47:42 12° W 23:49:46 10° WSW
Landsat 5 4.4 23:44:13 10° NNE 23:47:52 31° E 23:48:28 30° ESE
RESURS DK-1 4.1 23:53:19 10° WNW 23:55:58 19° WSW 23:55:58 19° WSW
